• MPC Preparation (Info)

  • MPEC 2019-M41 : 2019 LA6

    The following Minor Planet Electronic Circular may be linked-to from your own Web pages, but must not otherwise be redistributed electronically.

    A form allowing access to any MPEC is at the bottom of this page.


    Read MPEC 2019-M40 Read MPEC 2019-M42


    M.P.E.C. 2019-M41                                Issued 2019 June 19, 17:25 UT  
    
         The Minor Planet Electronic Circulars contain information on unusual
             minor planets and routine data on comets.  They are published
        on behalf of Division F of the International Astronomical Union by the
              Minor Planet Center, Smithsonian Astrophysical Observatory,
                              Cambridge, MA 02138, U.S.A.
    
                 Prepared using the Tamkin Foundation Computer Network
    
                                  MPC@CFA.HARVARD.EDU
                URL https://www.minorplanetcenter.net/    ISSN 1523-6714
    
                                    2019 LA6                                 
    
    Observations:
         K19L06A  C2019 06 02.35990615 51 48.118-25 41 22.12         21.2 GVEM041F51
         K19L06A  C2019 06 02.37026615 51 46.880-25 41 10.68         20.0 GVEM041F51
         K19L06A* C2019 06 08.32650 15 42 03.015-23 50 19.94         21.6 wUEM041F51
         K19L06A  C2019 06 08.33685 15 42 01.909-23 50 08.49         21.5 wUEM041F51
         K19L06A  C2019 06 08.34718 15 42 00.833-23 49 56.86         21.4 wUEM041F51
         K19L06A  C2019 06 08.35751 15 41 59.740-23 49 45.25         21.3 wUEM041F51
         K19L06A |C2019 06 09.19375 15 40 44.94 -23 33 25.5          21.4 GUEM041807
         K19L06A |C2019 06 09.19847 15 40 44.47 -23 33 19.8          21.3 GUEM041807
         K19L06A  C2019 06 10.33661915 39 09.645-23 12 22.59         21.2 GVEM041F51
         K19L06A  C2019 06 10.34438 15 39 08.872-23 12 13.50         21.0 iUEM041F51
         K19L06A  C2019 06 10.34825415 39 08.498-23 12 09.44         21.4 GVEM041F51
         K19L06A  C2019 06 10.35602 15 39 07.728-23 12 00.59         21.1 iUEM041F51
         K19L06A KC2019 06 11.27886 15 37 52.55 -22 54 43.9          21.5 RoEM041291
         K19L06A KC2019 06 11.28634 15 37 51.83 -22 54 35.4                oEM041291
    
    Observer details:
    291 LPL/Spacewatch II.  Observer R. A. Mastaler.  1.8-m f/2.7 reflector + CCD.
    807 Cerro Tololo Observatory, La Serena.  Observers T. Linder, R. Holmes.  
        1.00-m f/10.0 astrograph + CCD.
    F51 Pan-STARRS 1, Haleakala.  Observers J. Bulger, K. Chambers, T. Lowe,
        E. Magnier, A. Schultz, M. Willman.  Measurers S. Chastel, M. Huber,
        Y. Ramanjooloo, R. Wainscoat, R. Weryk, K. Chambers, T. de Boer, L. Denneau,
        J. Fairlamb, H. Flewelling, C.-C. Lin, E. Magnier.  
        1.8-m Ritchey-Chretien + CCD.
    
    Orbital elements:
    2019 LA6                                                 Earth MOID = 0.1391 AU
    Epoch 2019 Apr. 27.0 TT = JDT 2458600.5                 MPC
    M 232.32476              (2000.0)            P               Q
    n   0.73244033     Peri.   92.15544     +0.99785624     +0.02654254
    a   1.2188620      Node   266.32748     -0.04801183     +0.91805327
    e   0.0728492      Incl.    3.43654     +0.04447225     +0.39556755
    P   1.35           H   23.2           G   0.15           U   6
    Residuals in seconds of arc
    190602 F51  0.1-  0.2-    190608 F51  0.1+  0.0     190610 F51  0.1-  0.0
    190602 F51  0.1+  0.2+    190609 807  0.1+  0.2-    190610 F51  0.1-  0.1+
    190608 F51  0.1+  0.1-    190609 807  0.1+  0.0     190611 291  0.4+  0.1-
    190608 F51  0.1-  0.1-    190610 F51  0.1-  0.2-    190611 291  0.0   0.1-
    190608 F51  0.1+  0.0     190610 F51  0.2-  0.3+
    
    Ephemeris:
    2019 LA6                 a,e,i = 1.22, 0.07, 3                   q = 1.1301
    Date    TT    R. A. (2000) Decl.     Delta      r    Elong.  Phase     V
    2019 05 20    16 15 35.2 -29 06 05   0.2482  1.2559   168.4     9.3    21.3
    ...
    2019 06 04    15 48 58.0 -25 10 59   0.2308  1.2402   166.7    10.8    21.2
    ...
    2019 06 12    15 36 57.3 -22 40 45   0.2316  1.2314   156.6    19.1    21.4
    ...
    2019 06 18    15 30 35.2 -20 52 06   0.2361  1.2247   149.2    25.2    21.7
    2019 06 19    15 29 46.6 -20 34 54   0.2371  1.2235   148.0    26.1    21.7
    2019 06 20    15 29 02.5 -20 18 02   0.2382  1.2224   146.8    27.1    21.7
    ...
    2019 06 26    15 26 12.7 -18 44 36   0.2462  1.2156   140.1    32.5    22.0
    ...
    2019 07 04    15 26 38.3 -17 04 19   0.2599  1.2065   132.1    38.7    22.2
    ...
    2019 07 19    15 39 09.5 -15 12 50   0.2912  1.1897   120.2    47.6    22.7
    
    A. U. Tomatic                (C) Copyright 2019 MPC           M.P.E.C. 2019-M41
    


    Read MPEC 2019-M40 Read MPEC 2019-M42


    MPEC number:

    Enter an MPEC number in one of the following forms:

    • 1997-B01 (the full form)
    • J97B01 (the packed version of the full form)
    • B01 (the abbreviated form)